BEIDOU-2 G5

Last updated on Sun Apr 27 2025 00:02:40 GMT+0000 (Coordinated Universal Time)

1 38091U 12008A 25115.90600411 .00000060 00000+0 00000+0 0 9991 2 38091 2.5337 71.2444 0011371 262.1437 265.7158 1.00274957 48183
UTC large
Height (km)
Speed (km/s)
/
Latitude / Longitude
Inclination (degrees)
Orbital Period (minutes)
Azimuth
Elevation
Range (km)
Doppler Factor

Next 0 passes for location: London (51.5072 / 0.1276)

Sorry there are no passes over London.